Terminal Aerodrome Forecast
Issued by NWS Pittsburgh, PA

Current Version | Previous Version | Graphics & Text | Print | Product List | Glossary On
Versions: 1 2 3 4 5 6 7 8 9 10 11 12 13 14 15 16 17 18 19 20 21 22 23 24 25 26 27 28 29
000
FTUS41 KPBZ 110500
TAFPIT
TAF
KPIT 110539Z 1106/1212 00000KT P6SM FEW050
     FM110700 VRB03KT 4SM BR SCT250
     FM111100 VRB03KT 2SM BR SCT250
     FM111300 09004KT P6SM SCT050=

USA.gov is the U.S. government's official web portal to all federal, state and local government web resources and services.